BINAR-2

Last updated on Mon Nov 11 2024 00:02:08 GMT+0000 (Coordinated Universal Time)

1 60956U 98067WW 24314.24347963 .06491887 11953-4 23644-2 0 9995 2 60956 51.6000 307.2284 0003913 97.6580 262.4884 16.23962606 11262

Satellite not in orbit